Time,TemperatureF,DewpointF,PressureIn,WindDirection,WindDirectionDegrees,WindSpeedMPH,WindSpeedGustMPH,Humidity,HourlyPrecipIn,Conditions,Clouds,dailyrainin,SolarRadiationWatts/m^2,SoftwareType,DateUTC
2013-03-14 00:02:00,43.0,17.0,-100.00,NNW,332,6.0,7.0,34,0.00,,,0.00,0.000000,,2013-03-14 06:02:00,
2013-03-14 00:33:00,42.0,19.0,-100.00,NNE,21,5.0,8.0,40,0.00,,,0.00,0.000000,,2013-03-14 06:33:00,
2013-03-14 00:42:00,42.0,19.0,-100.00,NNE,21,5.0,8.0,40,0.00,,,0.00,0.000000,,2013-03-14 06:42:00,
2013-03-14 00:52:00,42.0,19.0,-100.00,NNE,21,5.0,8.0,40,0.00,,,0.00,0.000000,,2013-03-14 06:52:00,
2013-03-14 01:11:00,42.0,19.0,-100.00,NNE,21,5.0,8.0,40,0.00,,,0.00,0.000000,,2013-03-14 07:11:00,
2013-03-14 01:32:00,40.0,18.0,-100.00,NNW,339,11.0,16.0,41,0.00,,,0.00,0.000000,,2013-03-14 07:32:00,
2013-03-14 01:43:00,40.0,18.0,-100.00,NNW,339,11.0,16.0,41,0.00,,,0.00,0.000000,,2013-03-14 07:43:00,
2013-03-14 01:52:00,40.0,18.0,-100.00,NNW,339,11.0,16.0,41,0.00,,,0.00,0.000000,,2013-03-14 07:52:00,
2013-03-14 02:02:00,40.0,18.0,-100.00,NNW,339,11.0,16.0,41,0.00,,,0.00,0.000000,,2013-03-14 08:02:00,
2013-03-14 02:11:00,40.0,18.0,-100.00,NNW,339,11.0,16.0,41,0.00,,,0.00,0.000000,,2013-03-14 08:11:00,
2013-03-14 02:12:00,42.0,18.0,-100.00,NNW,346,10.0,14.0,37,0.00,,,-99.99,0.000000,,2013-03-14 08:12:00,
2013-03-14 02:42:00,42.0,18.0,-100.00,NNW,346,10.0,14.0,37,0.00,,,-99.99,0.000000,,2013-03-14 08:42:00,
2013-03-14 02:52:00,42.0,18.0,-100.00,NNW,346,10.0,14.0,37,0.00,,,-99.99,0.000000,,2013-03-14 08:52:00,
2013-03-14 03:12:00,42.0,12.0,-100.00,North,2,6.0,11.0,29,0.00,,,0.00,0.000000,,2013-03-14 09:12:00,
2013-03-14 03:32:00,42.0,12.0,-100.00,North,2,6.0,11.0,29,0.00,,,0.00,0.000000,,2013-03-14 09:32:00,
2013-03-14 03:42:00,42.0,12.0,-100.00,North,2,6.0,11.0,29,0.00,,,0.00,0.000000,,2013-03-14 09:42:00,
2013-03-14 03:52:00,42.0,12.0,-100.00,North,2,6.0,11.0,29,0.00,,,0.00,0.000000,,2013-03-14 09:52:00,
2013-03-14 04:12:00,42.0,11.0,-100.00,North,349,10.0,13.0,28,0.00,,,0.00,0.000000,,2013-03-14 10:12:00,
2013-03-14 04:32:00,42.0,11.0,-100.00,North,349,10.0,13.0,28,0.00,,,0.00,0.000000,,2013-03-14 10:32:00,
2013-03-14 04:42:00,42.0,11.0,-100.00,North,349,10.0,13.0,28,0.00,,,0.00,0.000000,,2013-03-14 10:42:00,
2013-03-14 04:52:00,42.0,11.0,-100.00,North,349,10.0,13.0,28,0.00,,,0.00,0.000000,,2013-03-14 10:52:00,
2013-03-14 05:33:00,39.0,10.0,-100.00,NNW,334,9.0,14.0,30,0.00,,,0.00,0.000000,,2013-03-14 11:33:00,
2013-03-14 05:42:00,39.0,10.0,-100.00,NNW,334,9.0,14.0,30,0.00,,,0.00,0.000000,,2013-03-14 11:42:00,
2013-03-14 05:52:00,39.0,10.0,-100.00,NNW,334,9.0,14.0,30,0.00,,,0.00,0.000000,,2013-03-14 11:52:00,
2013-03-14 06:01:00,39.0,10.0,-100.00,NNW,334,9.0,14.0,30,0.00,,,0.00,0.000000,,2013-03-14 12:01:00,
2013-03-14 06:11:00,39.0,10.0,-100.00,NNW,334,9.0,14.0,30,0.00,,,0.00,0.000000,,2013-03-14 12:11:00,
2013-03-14 06:12:00,42.0,9.0,-100.00,North,351,7.0,11.0,25,0.00,,,0.00,0.000000,,2013-03-14 12:12:00,
2013-03-14 06:33:00,42.0,9.0,-100.00,North,351,7.0,11.0,25,0.00,,,0.00,0.000000,,2013-03-14 12:33:00,
2013-03-14 06:42:00,42.0,9.0,-100.00,North,351,7.0,11.0,25,0.00,,,0.00,0.000000,,2013-03-14 12:42:00,
2013-03-14 06:52:00,42.0,9.0,-100.00,North,351,7.0,11.0,25,0.00,,,0.00,0.000000,,2013-03-14 12:52:00,
2013-03-14 07:12:00,41.0,7.0,-100.00,NNW,329,7.0,10.0,24,0.00,,,0.00,0.000000,,2013-03-14 13:12:00,
2013-03-14 07:32:00,41.0,7.0,-100.00,NNW,329,7.0,10.0,24,0.00,,,0.00,0.000000,,2013-03-14 13:32:00,
2013-03-14 07:43:00,41.0,7.0,-100.00,NNW,329,7.0,10.0,24,0.00,,,0.00,0.000000,,2013-03-14 13:43:00,
2013-03-14 07:52:00,41.0,7.0,-100.00,NNW,329,7.0,10.0,24,0.00,,,0.00,0.000000,,2013-03-14 13:52:00,
2013-03-14 08:12:00,42.0,9.0,-100.00,NNW,334,6.0,10.0,25,-99.99,,,0.00,33.000000,,2013-03-14 14:12:00,
2013-03-14 08:42:00,42.0,9.0,-100.00,NNW,334,6.0,10.0,25,-99.99,,,0.00,33.000000,,2013-03-14 14:42:00,
2013-03-14 08:53:00,42.0,9.0,-100.00,NNW,334,6.0,10.0,25,-99.99,,,0.00,33.000000,,2013-03-14 14:53:00,
2013-03-14 09:12:00,47.0,9.0,-100.00,NNE,15,4.0,7.0,21,0.00,,,0.00,230.000000,,2013-03-14 15:12:00,
2013-03-14 09:33:00,47.0,9.0,-100.00,NNE,15,4.0,7.0,21,0.00,,,0.00,230.000000,,2013-03-14 15:33:00,
2013-03-14 09:43:00,47.0,9.0,-100.00,NNE,15,4.0,7.0,21,0.00,,,0.00,230.000000,,2013-03-14 15:43:00,
2013-03-14 09:52:00,47.0,9.0,-100.00,NNE,15,4.0,7.0,21,0.00,,,0.00,230.000000,,2013-03-14 15:52:00,
2013-03-14 10:12:00,54.0,13.0,-100.00,SE,134,2.0,6.0,19,0.00,,,0.00,436.000000,,2013-03-14 16:12:00,
2013-03-14 10:33:00,54.0,13.0,-100.00,SE,134,2.0,6.0,19,0.00,,,0.00,436.000000,,2013-03-14 16:33:00,
2013-03-14 11:12:00,58.0,20.0,-100.00,SW,222,3.0,6.0,23,0.00,,,0.00,608.000000,,2013-03-14 17:12:00,
2013-03-14 11:33:00,58.0,20.0,-100.00,SW,222,3.0,6.0,23,0.00,,,0.00,608.000000,,2013-03-14 17:33:00,
2013-03-14 12:12:00,59.0,16.0,-100.00,South,188,5.0,10.0,18,0.00,,,-99.99,736.000000,,2013-03-14 18:12:00,
2013-03-14 12:33:00,59.0,16.0,-100.00,South,188,5.0,10.0,18,0.00,,,-99.99,736.000000,,2013-03-14 18:33:00,
2013-03-14 12:43:00,59.0,16.0,-100.00,South,188,5.0,10.0,18,0.00,,,-99.99,736.000000,,2013-03-14 18:43:00,
2013-03-14 12:52:00,59.0,16.0,-100.00,South,188,5.0,10.0,18,0.00,,,-99.99,736.000000,,2013-03-14 18:52:00,
2013-03-14 13:02:00,59.0,16.0,-100.00,South,188,5.0,10.0,18,0.00,,,-99.99,736.000000,,2013-03-14 19:02:00,
2013-03-14 14:12:00,63.0,20.0,-100.00,WNW,283,3.0,12.0,19,-99.99,,,0.00,804.000000,,2013-03-14 20:12:00,
2013-03-14 14:42:00,63.0,20.0,-100.00,WNW,283,3.0,12.0,19,-99.99,,,0.00,804.000000,,2013-03-14 20:42:00,
2013-03-14 14:52:00,63.0,20.0,-100.00,WNW,283,3.0,12.0,19,-99.99,,,0.00,804.000000,,2013-03-14 20:52:00,
2013-03-14 15:02:00,63.0,20.0,-100.00,WNW,283,3.0,12.0,19,-99.99,,,0.00,804.000000,,2013-03-14 21:02:00,
2013-03-14 15:12:00,63.0,15.0,-100.00,WNW,283,4.0,11.0,15,0.00,,,-99.99,754.000000,,2013-03-14 21:12:00,
2013-03-14 15:43:00,63.0,15.0,-100.00,WNW,283,4.0,11.0,15,0.00,,,-99.99,754.000000,,2013-03-14 21:43:00,
2013-03-14 15:53:00,63.0,15.0,-100.00,WNW,283,4.0,11.0,15,0.00,,,-99.99,754.000000,,2013-03-14 21:53:00,
2013-03-14 16:03:00,63.0,15.0,-100.00,WNW,283,4.0,11.0,15,0.00,,,-99.99,754.000000,,2013-03-14 22:03:00,
2013-03-14 16:42:00,61.0,16.0,-100.00,SW,229,5.0,11.0,17,0.00,,,0.00,635.000000,,2013-03-14 22:42:00,
2013-03-14 16:52:00,61.0,16.0,-100.00,SW,229,5.0,11.0,17,0.00,,,0.00,635.000000,,2013-03-14 22:52:00,
2013-03-14 17:02:00,61.0,16.0,-100.00,SW,229,5.0,11.0,17,0.00,,,0.00,635.000000,,2013-03-14 23:02:00,
2013-03-14 17:11:00,61.0,16.0,-100.00,SW,229,5.0,11.0,17,0.00,,,0.00,635.000000,,2013-03-14 23:11:00,
2013-03-14 17:12:00,57.0,16.0,-100.00,WSW,237,5.0,10.0,20,0.00,,,0.00,159.000000,,2013-03-14 23:12:00,
2013-03-14 17:33:00,57.0,16.0,-100.00,WSW,237,5.0,10.0,20,0.00,,,0.00,159.000000,,2013-03-14 23:33:00,
2013-03-14 17:43:00,57.0,16.0,-100.00,WSW,237,5.0,10.0,20,0.00,,,0.00,159.000000,,2013-03-14 23:43:00,
2013-03-14 17:53:00,57.0,16.0,-100.00,WSW,237,5.0,10.0,20,0.00,,,0.00,159.000000,,2013-03-14 23:53:00,
2013-03-14 18:02:00,57.0,16.0,-100.00,WSW,237,5.0,10.0,20,0.00,,,0.00,159.000000,,2013-03-15 00:02:00,
2013-03-14 18:32:00,56.0,14.0,-100.00,West,274,6.0,11.0,19,0.00,,,0.00,207.000000,,2013-03-15 00:32:00,
2013-03-14 18:42:00,56.0,14.0,-100.00,West,274,6.0,11.0,19,0.00,,,0.00,207.000000,,2013-03-15 00:42:00,
2013-03-14 18:52:00,56.0,14.0,-100.00,West,274,6.0,11.0,19,0.00,,,0.00,207.000000,,2013-03-15 00:52:00,
2013-03-14 19:02:00,56.0,14.0,-100.00,West,274,6.0,11.0,19,0.00,,,0.00,207.000000,,2013-03-15 01:02:00,
2013-03-14 19:11:00,56.0,14.0,-100.00,West,274,6.0,11.0,19,0.00,,,0.00,207.000000,,2013-03-15 01:11:00,
2013-03-14 19:32:00,52.0,16.0,-100.00,West,272,6.0,11.0,24,0.00,,,0.00,66.000000,,2013-03-15 01:32:00,
2013-03-14 19:42:00,52.0,16.0,-100.00,West,272,6.0,11.0,24,0.00,,,0.00,66.000000,,2013-03-15 01:42:00,
2013-03-14 19:52:00,52.0,16.0,-100.00,West,272,6.0,11.0,24,0.00,,,0.00,66.000000,,2013-03-15 01:52:00,
2013-03-14 20:02:00,52.0,16.0,-100.00,West,272,6.0,11.0,24,0.00,,,0.00,66.000000,,2013-03-15 02:02:00,
2013-03-14 20:11:00,52.0,16.0,-100.00,West,272,6.0,11.0,24,0.00,,,0.00,66.000000,,2013-03-15 02:11:00,
2013-03-14 20:32:00,51.0,16.0,-100.00,WSW,257,8.0,14.0,24,0.00,,,0.00,0.000000,,2013-03-15 02:32:00,
2013-03-14 20:42:00,51.0,16.0,-100.00,WSW,257,8.0,14.0,24,0.00,,,0.00,0.000000,,2013-03-15 02:42:00,
2013-03-14 20:52:00,51.0,16.0,-100.00,WSW,257,8.0,14.0,24,0.00,,,0.00,0.000000,,2013-03-15 02:52:00,
2013-03-14 21:02:00,51.0,16.0,-100.00,WSW,257,8.0,14.0,24,0.00,,,0.00,0.000000,,2013-03-15 03:02:00,
2013-03-14 21:11:00,51.0,16.0,-100.00,WSW,257,8.0,14.0,24,0.00,,,0.00,0.000000,,2013-03-15 03:11:00,
2013-03-14 21:12:00,50.0,16.0,-100.00,West,261,8.0,14.0,25,0.00,,,0.00,0.000000,,2013-03-15 03:12:00,
2013-03-14 21:33:00,50.0,16.0,-100.00,West,261,8.0,14.0,25,0.00,,,0.00,0.000000,,2013-03-15 03:33:00,
2013-03-14 21:43:00,50.0,16.0,-100.00,West,261,8.0,14.0,25,0.00,,,0.00,0.000000,,2013-03-15 03:43:00,
2013-03-14 21:53:00,50.0,16.0,-100.00,West,261,8.0,14.0,25,0.00,,,0.00,0.000000,,2013-03-15 03:53:00,
2013-03-14 22:03:00,50.0,16.0,-100.00,West,261,8.0,14.0,25,0.00,,,0.00,0.000000,,2013-03-15 04:03:00,
2013-03-14 22:12:00,49.0,15.0,-100.00,NW,322,5.0,10.0,25,0.00,,,0.00,0.000000,,2013-03-15 04:12:00,
2013-03-14 22:33:00,49.0,15.0,-100.00,NW,322,5.0,10.0,25,0.00,,,0.00,0.000000,,2013-03-15 04:33:00,
2013-03-14 22:43:00,49.0,15.0,-100.00,NW,322,5.0,10.0,25,0.00,,,0.00,0.000000,,2013-03-15 04:43:00,
2013-03-14 22:53:00,49.0,15.0,-100.00,NW,322,5.0,10.0,25,0.00,,,0.00,0.000000,,2013-03-15 04:53:00,
2013-03-14 23:02:00,49.0,15.0,-100.00,NW,322,5.0,10.0,25,0.00,,,0.00,0.000000,,2013-03-15 05:02:00,
2013-03-14 23:12:00,47.0,17.0,-100.00,NNE,16,4.0,7.0,30,0.00,,,0.00,0.000000,,2013-03-15 05:12:00,
2013-03-14 23:32:00,47.0,17.0,-100.00,NNE,16,4.0,7.0,30,0.00,,,0.00,0.000000,,2013-03-15 05:32:00,
2013-03-14 23:42:00,47.0,17.0,-100.00,NNE,16,4.0,7.0,30,0.00,,,0.00,0.000000,,2013-03-15 05:42:00,
2013-03-14 23:52:00,47.0,17.0,-100.00,NNE,16,4.0,7.0,30,0.00,,,0.00,0.000000,,2013-03-15 05:52:00,